This is the latest recevied weather packets stored in our database for station/object GCEMA. If no packets are shown the sender has not sent any weather packets the latest 10 day(s).
| Time | Temp. | Humidity | Pressure | Rain* | Wind** | Luminosity | Snow |
|---|---|---|---|---|---|---|---|
| 1777828101 | 17.22° C | - | 1015.4 hPa | 0 mm | 0 m/s | - | - |
| 1777827922 | 16.11° C | - | 1015.6 hPa | 0 mm | 0 m/s | - | - |
| 1777827742 | 15.56° C | - | 1015.7 hPa | 0 mm | 0 m/s | - | - |
| 1777827560 | 15.56° C | - | 1015.7 hPa | 0 mm | 0 m/s | - | - |
| 1777827021 | 15.56° C | - | 1015.9 hPa | 0 mm | 0 m/s | - | - |
| 1777826842 | 15.56° C | - | 1016 hPa | 0 mm | 0 m/s | - | - |
| 1777826659 | 15.56° C | - | 1016 hPa | 0 mm | 0 m/s | - | - |
| 1777826480 | 16.67° C | - | 1016 hPa | 0 mm | 0 m/s | - | - |
| 1777826300 | 15° C | - | 1016.1 hPa | 0 mm | 0 m/s | - | - |
| 1777826121 | 15° C | - | 1016.2 hPa | 0 mm | 0 m/s | - | - |
| 1777825941 | 16.67° C | - | 1016.2 hPa | 0 mm | 0 m/s | - | - |
| 1777825759 | 16.67° C | - | 1016.3 hPa | 0 mm | 0 m/s | - | - |
| 1777825579 | 16.11° C | - | 1016.2 hPa | 0 mm | 0 m/s | - | - |
| 1777825400 | 16.11° C | - | 1016.2 hPa | 0 mm | 0 m/s | - | - |
| 1777825040 | 15.56° C | - | 1016.3 hPa | 0 mm | 0 m/s | - | - |
| 1777824858 | 16.11° C | - | 1016.2 hPa | 0 mm | 0 m/s | - | - |
| 1777824678 | 15° C | - | 1016.3 hPa | 0 mm | 0 m/s | - | - |
| 1777824319 | 15.56° C | - | 1016.5 hPa | 0 mm | 0 m/s | - | - |
| 1777824140 | 16.67° C | - | 1016.5 hPa | 0 mm | 0 m/s | - | - |
| 1777823957 | 15° C | - | 1016.7 hPa | 0 mm | 0 m/s | - | - |
| 1777823778 | 15.56° C | - | 1016.6 hPa | 0 mm | 0 m/s | - | - |
| 1777823598 | 14.44° C | - | 1016.6 hPa | 0 mm | 0 m/s | - | - |
| 1777823421 | 15.56° C | - | 1016.7 hPa | 0 mm | 0 m/s | - | - |
| 1777823239 | 14.44° C | - | 1016.7 hPa | 0 mm | 0 m/s | - | - |
| 1777822877 | 16.11° C | - | 1016.8 hPa | 0 mm | 0 m/s | - | - |
* Rain latest hour (hover to see other rain measurements)
** Current wind speed in m/s (hover to see current wind gust speed)